Hourly Weather Kandahar

Today, 6 July, Monday

Time Temperature Precipitation Wind Pressure Humidity
00:00 +25°C° 0 mm 1 mps 665 mmHg 13%
01:00 +24°C° 0 mm 1 mps 665 mmHg 13%
02:00 +24°C° 0 mm 1 mps 665 mmHg 13%
03:00 +23°C° 0 mm 1 mps 665 mmHg 14%
04:00 +23°C° 0 mm 1 mps 665 mmHg 14%
05:00 +26°C° 0 mm 1 mps 666 mmHg 12%
06:00 +29°C° 0 mm 1 mps 667 mmHg 10%
07:00 +31°C° 0 mm 1 mps 668 mmHg 9%
08:00 +33°C° 0 mm 1 mps 668 mmHg 8%
09:00 +36°C° 0 mm 2 mps 668 mmHg 7%
10:00 +37°C° 0 mm 2 mps 669 mmHg 6%
11:00 +38°C° 0 mm 2 mps 668 mmHg 5%
12:00 +40°C° 0 mm 2 mps 668 mmHg 5%
13:00 +41°C° 0 mm 2 mps 668 mmHg 4%
14:00 +41°C° 0 mm 2 mps 668 mmHg 4%
15:00 +41°C° 0 mm 2 mps 667 mmHg 4%
16:00 +41°C° 0 mm 1 mps 667 mmHg 4%
17:00 +37°C° 0 mm 1 mps 666 mmHg 5%
18:00 +34°C° 0 mm 1 mps 666 mmHg 6%
19:00 +30°C° 0 mm 1 mps 665 mmHg 7%
20:00 +30°C° 0 mm 1 mps 666 mmHg 8%
21:00 +29°C° 0 mm 1 mps 666 mmHg 9%
22:00 +28°C° 0 mm 2 mps 666 mmHg 9%
23:00 +27°C° 0 mm 1 mps 666 mmHg 10%

Tomorrow, 7 July, Tuesday

Time Temperature Precipitation Wind Pressure Humidity
00:00 +26°C° 0 mm 1 mps 666 mmHg 11%
01:00 +25°C° 0 mm 1 mps 666 mmHg 13%
02:00 +25°C° 0 mm 1 mps 666 mmHg 15%
03:00 +24°C° 0 mm 1 mps 666 mmHg 17%
04:00 +24°C° 0 mm 2 mps 667 mmHg 20%
05:00 +26°C° 0 mm 2 mps 668 mmHg 20%
06:00 +29°C° 0 mm 2 mps 669 mmHg 21%
07:00 +31°C° 0 mm 2 mps 670 mmHg 22%
08:00 +34°C° 0 mm 2 mps 670 mmHg 20%
09:00 +36°C° 0 mm 2 mps 670 mmHg 18%
10:00 +38°C° 0 mm 2 mps 671 mmHg 16%
11:00 +40°C° 0 mm 2 mps 670 mmHg 13%
12:00 +41°C° 0 mm 2 mps 670 mmHg 11%
13:00 +42°C° 0 mm 2 mps 670 mmHg 8%
14:00 +43°C° 0 mm 3 mps 670 mmHg 8%
15:00 +44°C° 0 mm 3 mps 670 mmHg 7%
16:00 +44°C° 0 mm 4 mps 669 mmHg 7%
17:00 +42°C° 0 mm 4 mps 669 mmHg 8%
18:00 +40°C° 0 mm 5 mps 669 mmHg 9%
19:00 +37°C° 0 mm 5 mps 669 mmHg 10%
20:00 +35°C° 0 mm 4 mps 669 mmHg 11%
21:00 +34°C° 0 mm 4 mps 669 mmHg 12%
22:00 +31°C° 0 mm 3 mps 669 mmHg 14%
23:00 +30°C° 0 mm 3 mps 669 mmHg 15%

Day after tomorrow, 8 July, Wednesday

Time Temperature Precipitation Wind Pressure Humidity
00:00 +29°C° 0 mm 2 mps 669 mmHg 16%
01:00 +28°C° 0 mm 2 mps 668 mmHg 17%
02:00 +27°C° 0 mm 1 mps 668 mmHg 18%
03:00 +26°C° 0 mm 1 mps 668 mmHg 19%
04:00 +23°C° 0 mm 0 mps 668 mmHg 20%
05:00 +28°C° 0 mm 1 mps 669 mmHg 18%
06:00 +30°C° 0 mm 2 mps 670 mmHg 16%
07:00 +34°C° 0 mm 2 mps 671 mmHg 14%
08:00 +36°C° 0 mm 2 mps 671 mmHg 13%
09:00 +37°C° 0 mm 1 mps 672 mmHg 11%
10:00 +40°C° 0 mm 1 mps 672 mmHg 9%
11:00 +41°C° 0 mm 2 mps 672 mmHg 8%
12:00 +43°C° 0 mm 3 mps 671 mmHg 7%
13:00 +44°C° 0 mm 4 mps 671 mmHg 7%
14:00 +45°C° 0 mm 5 mps 671 mmHg 6%
15:00 +45°C° 0 mm 5 mps 670 mmHg 6%
16:00 +46°C° 0 mm 6 mps 670 mmHg 6%
17:00 +42°C° 0 mm 5 mps 670 mmHg 7%
18:00 +40°C° 0 mm 4 mps 669 mmHg 9%
19:00 +37°C° 0 mm 3 mps 669 mmHg 10%
20:00 +36°C° 0 mm 4 mps 669 mmHg 11%
21:00 +35°C° 0 mm 4 mps 669 mmHg 11%
22:00 +34°C° 0 mm 4 mps 670 mmHg 12%
23:00 +31°C° 0 mm 3 mps 669 mmHg 13%

9 July, Thursday

Time Temperature Precipitation Wind Pressure Humidity
00:00 +29°C° 0 mm 2 mps 668 mmHg 14%
01:00 +28°C° 0 mm 2 mps 668 mmHg 15%
02:00 +27°C° 0 mm 1 mps 668 mmHg 16%
03:00 +26°C° 0 mm 1 mps 667 mmHg 17%
04:00 +25°C° 0 mm 1 mps 667 mmHg 17%
05:00 +27°C° 0 mm 1 mps 668 mmHg 15%
06:00 +30°C° 0 mm 1 mps 669 mmHg 13%
07:00 +32°C° 0 mm 1 mps 669 mmHg 11%
08:00 +35°C° 0 mm 3 mps 670 mmHg 9%
09:00 +38°C° 0 mm 4 mps 670 mmHg 8%
10:00 +41°C° 0 mm 5 mps 670 mmHg 6%
11:00 +42°C° 0 mm 6 mps 669 mmHg 6%
12:00 +45°C° 0 mm 8 mps 669 mmHg 5%
13:00 +47°C° 0 mm 9 mps 669 mmHg 5%
14:00 +47°C° 0 mm 9 mps 668 mmHg 4%
15:00 +47°C° 0 mm 9 mps 668 mmHg 4%
16:00 +45°C° 0 mm 8 mps 667 mmHg 3%
17:00 +43°C° 0 mm 7 mps 667 mmHg 4%
18:00 +39°C° 0 mm 6 mps 666 mmHg 4%
19:00 +35°C° 0 mm 4 mps 666 mmHg 4%
20:00 +33°C° 0 mm 4 mps 665 mmHg 6%
21:00 +30°C° 0 mm 3 mps 665 mmHg 7%
22:00 +28°C° 0 mm 2 mps 665 mmHg 9%
23:00 +27°C° 0 mm 2 mps 665 mmHg 10%

10 July, Friday

Time Temperature Precipitation Wind Pressure Humidity
00:00 +26°C° 0 mm 1 mps 664 mmHg 12%
01:00 +25°C° 0 mm 1 mps 664 mmHg 13%
02:00 +24°C° 0 mm 1 mps 664 mmHg 14%
03:00 +23°C° 0 mm 1 mps 664 mmHg 15%
04:00 +23°C° 0 mm 1 mps 663 mmHg 16%
05:00 +25°C° 0 mm 1 mps 664 mmHg 14%
06:00 +28°C° 0 mm 1 mps 665 mmHg 13%
07:00 +30°C° 0 mm 2 mps 666 mmHg 11%
08:00 +32°C° 0 mm 2 mps 666 mmHg 10%
09:00 +35°C° 0 mm 2 mps 667 mmHg 10%
10:00 +37°C° 0 mm 2 mps 667 mmHg 9%
11:00 +38°C° 0 mm 2 mps 666 mmHg 8%
12:00 +40°C° 0 mm 2 mps 666 mmHg 7%
13:00 +43°C° 0 mm 3 mps 665 mmHg 7%
14:00 +43°C° 0 mm 3 mps 665 mmHg 6%
15:00 +44°C° 0 mm 4 mps 665 mmHg 6%
16:00 +44°C° 0 mm 4 mps 664 mmHg 5%
17:00 +42°C° 0 mm 4 mps 664 mmHg 6%
18:00 +38°C° 0 mm 3 mps 663 mmHg 7%
19:00 +35°C° 0 mm 3 mps 663 mmHg 8%
20:00 +34°C° 0 mm 3 mps 663 mmHg 10%
21:00 +33°C° 0 mm 4 mps 663 mmHg 11%
22:00 +30°C° 0 mm 4 mps 663 mmHg 13%
23:00 +29°C° 0 mm 3 mps 663 mmHg 15%

11 July, Saturday

Time Temperature Precipitation Wind Pressure Humidity
00:00 +28°C° 0 mm 3 mps 662 mmHg 17%
01:00 +27°C° 0 mm 2 mps 662 mmHg 19%
02:00 +26°C° 0 mm 2 mps 662 mmHg 20%
03:00 +26°C° 0 mm 2 mps 662 mmHg 21%
04:00 +25°C° 0 mm 2 mps 662 mmHg 22%
05:00 +27°C° 0 mm 2 mps 663 mmHg 20%
06:00 +29°C° 0 mm 2 mps 664 mmHg 18%
07:00 +31°C° 0 mm 3 mps 664 mmHg 15%
08:00 +34°C° 0 mm 2 mps 664 mmHg 13%
09:00 +36°C° 0 mm 2 mps 665 mmHg 12%
10:00 +37°C° 0 mm 1 mps 665 mmHg 10%
11:00 +39°C° 0 mm 1 mps 665 mmHg 9%
12:00 +41°C° 0 mm 2 mps 664 mmHg 8%
13:00 +42°C° 0 mm 2 mps 664 mmHg 7%
14:00 +43°C° 0 mm 3 mps 664 mmHg 7%
15:00 +44°C° 0 mm 4 mps 664 mmHg 6%
16:00 +45°C° 0 mm 5 mps 663 mmHg 6%
17:00 +42°C° 0 mm 5 mps 663 mmHg 7%
18:00 +40°C° 0 mm 5 mps 663 mmHg 7%
19:00 +36°C° 0 mm 5 mps 662 mmHg 8%
20:00 +34°C° 0 mm 4 mps 662 mmHg 9%
21:00 +31°C° 0 mm 3 mps 663 mmHg 10%
22:00 +29°C° 0 mm 2 mps 663 mmHg 11%
23:00 +28°C° 0 mm 2 mps 663 mmHg 13%
Show more